Regional Weather Roundup
Issued by NWS

Home | Current Version | Previous Version | Text Only | Print | Product List | Glossary Off
Versions: 1 2 3 4 5 6 7 8 9 10 11 12 13 14 15 16 17 18 19 20 21 22 23 24 25 26 27 28 29 30 31 32 33 34 35 36 37 38 39 40 41 42 43 44 45 46 47 48 49 50

000
ASUS43 KFSD 301210
RWRSD

WEATHER ROUNDUP FOR SOUTH DAKOTA
NATIONAL WEATHER SERVICE SIOUX FALLS SD
700 AM CDT SUN AUG 30 2015

NOTE: "FAIR" INDICATES FEW OR NO CLOUDS BELOW 12,000 FEET WITH NO
SIGNIFICANT WEATHER AND/OR OBSTRUCTIONS TO VISIBILITY.


SDZ001>005-009-010-012>017-301300-
NORTHWEST AND NORTH CENTRAL SOUTH DAKOTA

CITY           SKY/WX    TMP DP  RH WIND       PRES   REMARKS
FAITH            N/A     59  48  67 S16       29.78F
MOBRIDGE       MOCLDY    66  63  90 SE12      29.77F
$$

SDZ012>016-024>037-041>051-057-063-072>074-301300-
SOUTHWEST AND SOUTH CENTRAL SOUTH DAKOTA

CITY           SKY/WX    TMP DP  RH WIND       PRES   REMARKS
RAPID CTY ARPT PTCLDY    62  46  55 SE7       29.84F
PIERRE         PTCLDY    67  55  65 S8        29.82S
CUSTER         PTCLDY    63  39  41 W3        30.03F
ELLSWORTH AFB  PTCLDY    67  46  47 S10       29.82F
PHILIP         PTCLDY    71  49  45 CALM      29.83R
PINE RIDGE     PTCLDY    66  42  41 SW8       29.92S
WINNER         FAIR      69  56  62 S18       29.89F
$$

SDZ004>011-016>023-039-040-301300-
NORTHEAST SOUTH DAKOTA

CITY           SKY/WX    TMP DP  RH WIND       PRES   REMARKS
ABERDEEN       CLEAR     64  62  93 S13       29.85S
WATERTOWN      CLEAR     62  60  93 S13       29.93R
BROOKINGS      CLOUDY    63  57  82 S12       29.99R
SISSETON         N/A     65  62  90 S8        29.85S
$$

SDZ017-020-022-023-036>040-048>070-301300-
SOUTHEAST SOUTH DAKOTA

CITY           SKY/WX    TMP DP  RH WIND       PRES   REMARKS
SIOUX FALLS    CLOUDY    62  60  93 S12       30.00R FOG
HURON          CLEAR     63  62  97 S10       29.88S
CHAMBERLAIN    CLEAR     66  59  79 CALM      29.89S
MITCHELL       PTCLDY    62  62 100 SE12      29.94R
YANKTON        CLOUDY    64  63  94 SE9       29.98S
$$

ABBREVIATIONS USED IN REMARKS
   TC - TEMPERATURE IN CELSIUS
  WCI - WIND CHILL INDEX
   HX - HEAT INDEX
  VSB - VISIBILITY




USA.gov is the U.S. government's official web portal to all federal, state and local government web resources and services.